Weather in Sao Roque

Brazil     23°31′52″S   47°08′04″W
temp.,
°C
wind,
m/s
gust,
m/s
humid.,
%
clouds,
%
prec.,
mm/h
press.,
hPa
HPBL,
m
19 january, tue
tue1900:00+20se3697100 4.5 1013194
03:00+20se2496100 5.5 1013124
06:00+20se4997100 1.3 1013273
09:00+23se5890100 2.4 1014444
12:00+26ese2279100 3.6 1014777
15:00+23se4790100 9.4 1013548
18:00+22sse4991100 3.1 1013408
21:00+20se3895100 3.9 1016297
20 january, wed
wed2000:00+20se4997100 0.9 1015386
03:00+20se3897100 2.3 1014275
06:00+20se2597100 1.3 1015182
09:00+21e1694100 1.6 1016394
12:00+25n357570 1.3 1014984
15:00+26nne237483 4.3 1013823
18:00+23s1289100 3.6 101288
21:00+20se3795100 4.6 1015194
21 january, thu
thu2100:00+19se3897100 0.9 1015236
03:00+19se3796100 2.1 1014229
06:00+19se2696100 0.4 1015162
09:00+24ne247990 0.4 1016438
12:00+27n336086 0.5 10151348
15:00+28nw136080 2.2 10131398
18:00+22sse4790100 2.1 1014294
21:00+20se4990100 6.6 1016165
22 january, fri
fri2200:00+19se3893100 3.8 1017227
03:00+19se3894100 0.2 1016369
06:00+18se249599 0.1 1017136
09:00+23nne267098 0.4 1019875
12:00+27nne345541 0.5 10181417
15:00+25sse336853 3.3 1016477
18:00+21se4989100 4.5 1017266
21:00+19se51192100 4.8 1018428
23 january, sat
sat2300:00+19se51193100 0.0 1019420
03:00+18se3893100 0.1 1017279
06:00+18se249499 0.0 1018119
09:00+23ene117998 0.9 1019341
12:00+25nne1274100 3.9 1017888
15:00+24ese2279100 7.1 1015521
18:00+21se4890100 0.6 1015325
21:00+20ese41088100 0.8 1017345